"Pseudo-MPEC" for P12oAZ6

Created 2026 Jul 28 21:35:06 UT using Find_Orb

Click here for an explanation of pseudo-MPECs

 
 Astrometry: 
     P12oAZ6*0C2026 07 24.50892722 49 58.736-02 01 03.37   ~7OG5 21.96wXNEOCPF51
     P12oAZ6 0C2026 07 24.52081422 49 59.809-02 00 52.78   ~7OG5 22.24wXNEOCPF51
     P12oAZ6 0C2026 07 24.53291822 50 00.894-02 00 41.97   ~7OG5 22.25wXNEOCPF51
     P12oAZ6 0C2026 07 26.50433922 53 12.606-01 31 38.57   ~7QGK 23.57GVNEOCPF52
     P12oAZ6 0C2026 07 26.51403822 53 13.489-01 31 30.12   ~7QGK 22.55GVNEOCPF52
     P12oAZ6 0C2026 07 26.52371322 53 14.344-01 31 21.67   ~7QGK 21.57GVNEOCPF52

Station data:
(F51) Pan-STARRS 1, Haleakala  (N20.707234 W156.255910)  US/Hawaii.
   Observers J. Herman, T. Lowe, P. Minguez, A. Schultz, I. Smith. Measurers
   K. Chambers, T. de Boer, J. Fairlamb, H. Gao, M. Huber, C.-C. Lin, E.
   Magnier, Y. Ramanjooloo, R. Wainscoat, R. Weryk. 1.8-m Ritchey-Chrétien +
   CCD.
(F52) Pan-STARRS 2, Haleakala  (N20.707382 W156.255910)  US/Hawaii.
   Observers J. Herman, T. Lowe, P. Minguez, A. Schultz, I. Smith. Measurers
   K. Chambers, T. de Boer, J. Fairlamb, H. Gao, M. Huber, C.-C. Lin, E.
   Magnier, Y. Ramanjooloo, R. Wainscoat, R. Weryk. 1.8-m Ritchey-Chrétien +
   CCD.

Orbital elements:  P12oAZ6
   Perihelion 2026 Oct 16.957377 +/- 29.1 TT = 22:58:37.3 (JD 2461330.457377)
Epoch 2026 Jul 26.0 TT = JDT 2461247.5   Earth MOID: 0.0697   Ma: 0.0855
M 331.879864464 +/- 10              (J2000 ecliptic)             AutoNEOCP
n   0.338970886 +/- 0.108           Peri.  170.319114 +/- 36
a   2.037172396 +/- 0.432           Node   219.326196 +/- 11
e   0.47735245 +/- 0.114            Incl.    1.697903 +/- 0.20
P   2.90765                H 22.10  G  0.15   U 11.3  SR
q 1.064723147 +/- 0.085    Q 3.009621645 +/- 1.7
From 6 observations 2026 July 24-26; mean residual 0".16
Residuals in arcseconds: 
260724 F51  .15-  .22-    260724 F51  .12+  .23+    260726 F52  .13+  .01-    
260724 F51  .03+  .01-    260726 F52  .06+  .22+    260726 F52  .18-  .22-    

Ephemerides (geocentric):
Date (UTC) HH   RA             Dec           delta  r     elong  mag " sig PA
---- --------  ------------   ------------  ------ ------ -----  --- --------
2026 07 28 22  22 57 11.315   -00 54 56.76  .43413 1.3764 140.0 22.2  109 120
2026 07 28 23  22 57 15.493   -00 54 18.22  .43377 1.3762 140.0 22.2  112 120
2026 07 29 00  22 57 19.673   -00 53 39.66  .43340 1.3759 140.0 22.2  115 120
2026 07 29 01  22 57 23.855   -00 53 01.08  .43303 1.3757 140.1 22.2  118 120
2026 07 29 02  22 57 28.039   -00 52 22.48  .43266 1.3754 140.1 22.2  121 120
2026 07 29 03  22 57 32.224   -00 51 43.85  .43230 1.3751 140.1 22.2  124 120
2026 07 29 04  22 57 36.412   -00 51 05.20  .43193 1.3749 140.1 22.2  128 120
2026 07 29 05  22 57 40.601   -00 50 26.53  .43156 1.3746 140.1 22.2  131 120
2026 07 29 06  22 57 44.792   -00 49 47.84  .43120 1.3744 140.1 22.2  134 120
2026 07 29 07  22 57 48.985   -00 49 09.13  .43083 1.3741 140.2 22.2  137 120
2026 07 29 08  22 57 53.180   -00 48 30.39  .43046 1.3738 140.2 22.2  141 120
2026 07 29 09  22 57 57.376   -00 47 51.63  .43010 1.3736 140.2 22.2  144 120
2026 07 29 10  22 58 01.575   -00 47 12.85  .42973 1.3733 140.2 22.2  148 120
2026 07 29 11  22 58 05.775   -00 46 34.05  .42937 1.3731 140.2 22.2  151 120
2026 07 29 12  22 58 09.977   -00 45 55.23  .42900 1.3728 140.3 22.2  155 121
2026 07 29 13  22 58 14.181   -00 45 16.38  .42864 1.3725 140.3 22.2  158 121
2026 07 29 14  22 58 18.387   -00 44 37.51  .42827 1.3723 140.3 22.2  162 121
2026 07 29 15  22 58 22.595   -00 43 58.61  .42791 1.3720 140.3 22.2  165 121
2026 07 29 16  22 58 26.804   -00 43 19.70  .42754 1.3718 140.3 22.2  169 121
2026 07 29 17  22 58 31.016   -00 42 40.76  .42718 1.3715 140.4 22.2  173 121
2026 07 29 18  22 58 35.229   -00 42 01.80  .42681 1.3712 140.4 22.2  176 121
2026 07 29 19  22 58 39.445   -00 41 22.82  .42645 1.3710 140.4 22.2  180 121
2026 07 29 20  22 58 43.662   -00 40 43.81  .42608 1.3707 140.4 22.2  184 121
2026 07 29 21  22 58 47.881   -00 40 04.78  .42572 1.3705 140.4 22.2  188 121
2026 07 29 22  22 58 52.102   -00 39 25.73  .42536 1.3702 140.4 22.2  192 121
2026 07 29 23  22 58 56.325   -00 38 46.66  .42499 1.3700 140.5 22.2  196 121
2026 07 30 00  22 59 00.550   -00 38 07.56  .42463 1.3697 140.5 22.2  199 121
2026 07 30 01  22 59 04.777   -00 37 28.44  .42427 1.3694 140.5 22.2  203 121
2026 07 30 02  22 59 09.006   -00 36 49.30  .42391 1.3692 140.5 22.2  208 121
2026 07 30 03  22 59 13.237   -00 36 10.14  .42354 1.3689 140.5 22.2  212 121
2026 07 30 04  22 59 17.470   -00 35 30.95  .42318 1.3687 140.6 22.2  216 121
2026 07 30 05  22 59 21.704   -00 34 51.74  .42282 1.3684 140.6 22.2  220 121
2026 07 30 06  22 59 25.941   -00 34 12.50  .42246 1.3681 140.6 22.2  224 121
2026 07 30 07  22 59 30.180   -00 33 33.25  .42210 1.3679 140.6 22.2  228 121
2026 07 30 08  22 59 34.420   -00 32 53.97  .42173 1.3676 140.6 22.2  233 121
2026 07 30 09  22 59 38.663   -00 32 14.66  .42137 1.3674 140.7 22.1  237 121
2026 07 30 10  22 59 42.907   -00 31 35.34  .42101 1.3671 140.7 22.1  241 121
2026 07 30 11  22 59 47.154   -00 30 55.99  .42065 1.3668 140.7 22.1  246 121
2026 07 30 12  22 59 51.402   -00 30 16.61  .42029 1.3666 140.7 22.1  250 121
2026 07 30 13  22 59 55.653   -00 29 37.22  .41993 1.3663 140.7 22.1  255 121
2026 07 30 14  22 59 59.906   -00 28 57.80  .41957 1.3661 140.7 22.1  259 121
2026 07 30 15  23 00 04.160   -00 28 18.36  .41921 1.3658 140.8 22.1  264 121
2026 07 30 16  23 00 08.417   -00 27 38.89  .41885 1.3655 140.8 22.1  268 121
2026 07 30 17  23 00 12.675   -00 26 59.40  .41849 1.3653 140.8 22.1  273 121
2026 07 30 18  23 00 16.936   -00 26 19.89  .41813 1.3650 140.8 22.1  277 121
2026 07 30 19  23 00 21.199   -00 25 40.35  .41777 1.3648 140.8 22.1  282 121
2026 07 30 20  23 00 25.464   -00 25 00.79  .41741 1.3645 140.9 22.1  287 121
2026 07 30 21  23 00 29.730   -00 24 21.21  .41705 1.3643 140.9 22.1  292 121